Terminal Aerodrome Forecast
Issued by NWS Billings, MT

Home | Current Version | Previous Version | Graphics & Text | Print | Product List | Glossary On
Versions: 1 2 3 4 5 6 7 8 9 10 11 12 13 14 15 16 17 18 19 20 21 22 23 24 25
184
FTUS45 KBYZ 230520
TAFMLS
TAF
KMLS 230520Z 2306/2406 03009KT P6SM VCTS SCT100CB BKN150
     FM230700 32020G32KT P6SM FEW120
     FM240200 36009KT P6SM SKC=

USA.gov is the U.S. government's official web portal to all federal, state and local government web resources and services.